#datint,netname,site,siteID,timestamp,IntT_Avg,BattV_Min,AirT2_Avg,AirT_Avg,AirT_Max,AirT_Min,SolarW_Avg,SolarMJ,WindS_Max,WindS_Avg,WindD_Avg,WindD_SD,EA_Avg,RH_Max,RH_Min,Td_Avg,Td_Max,Td_Min,ETo,ETr,SoilT4_Avg,SoilT8_Avg,SoilVWC8_Avg,wetstate_Avg,wetT_Avg,precip_accum,Precip_WPG,Precip_TB,Rso
hly,AgWx,beryljct,423,29JAN2019:00:00:00,32.1,12.88,30.5,30.0,31.0,29.5,0,0.0001,5.4,3.6,312,11,0.479,87,81,25.9,26.4,25.5,-0.00013,-0.00013,.,34.4,24,0,35.6,9.86,0.00,0.00,1E-6
hly,AgWx,beryljct,423,29JAN2019:01:00:00,31.5,12.76,31.0,30.4,31.2,29.6,0,0.0002,4.5,2.2,318,11,0.482,87,81,26.2,26.4,25.8,-0.00027,-0.00033,.,34.4,24,0,35.6,9.87,0.00,0.00,1E-6
hly,AgWx,beryljct,423,29JAN2019:02:00:00,32.0,12.84,31.3,30.8,31.6,30.3,0,0.0001,9.1,4.8,325,13,0.486,86,80,26.3,26.7,26.0,-0.00004,-0.00002,.,34.4,24,0,35.6,9.87,0.00,0.00,1E-6
hly,AgWx,beryljct,423,29JAN2019:03:00:00,32.3,12.82,31.2,30.6,30.9,30.3,0,0.0001,9.3,5.7,309,7.8,0.490,86,83,26.6,26.9,26.4,-0.00001,0.00001,.,34.4,24,0,35.7,9.87,0.00,0.00,1E-6
hly,AgWx,beryljct,423,29JAN2019:04:00:00,31.9,12.8,31.0,30.7,31.2,30.2,0,0.0001,4.3,1.9,185,16,0.479,84,81,26.1,26.6,25.8,-0.00030,-0.00038,.,34.3,25,0,35.6,9.87,0.00,0.00,1E-6
hly,AgWx,beryljct,423,29JAN2019:05:00:00,31.4,12.66,30.1,29.7,30.3,29.1,0,0.0001,3.9,1.7,182,11,0.481,89,84,26.2,26.5,25.9,-0.00035,-0.00045,.,34.3,25,0,35.4,9.87,0.00,0.00,1E-6
hly,AgWx,beryljct,423,29JAN2019:06:00:00,30.5,12.75,28.9,28.3,29.1,27.9,0,0.0001,3.0,1.9,291,14,0.472,91,88,25.7,26.3,25.5,-0.00033,-0.00042,.,34.3,25,0,35.6,9.87,0.00,0.00,0.0051576208
hly,AgWx,beryljct,423,29JAN2019:07:00:00,30.0,12.6,28.7,28.2,28.6,27.9,0,0.0013,4.3,2.9,336,9.5,0.472,91,89,25.7,26.0,25.5,0.00019,0.00031,.,34.3,24,0,35.6,9.87,0.00,0.00,0.22072415
hly,AgWx,beryljct,423,29JAN2019:08:00:00,30.0,12.74,29.3,28.6,29.3,27.7,28,0.1023,3.6,2.4,251,8.6,0.483,92,89,26.1,26.6,25.5,0.00057,0.00071,.,34.3,24,0,35.7,9.87,0.00,0.00,0.830402
hly,AgWx,beryljct,423,29JAN2019:09:00:00,31.5,12.83,30.8,30.0,30.9,29.2,117,0.4229,4.1,2.5,324,12,0.487,89,84,26.4,26.8,25.9,0.00189,0.00216,.,34.2,24,0,37.0,9.87,0.00,0.00,1.4208821
hly,AgWx,beryljct,423,29JAN2019:10:00:00,35.0,13.28,33.0,32.1,33.3,31.0,257,0.9239,5.4,2.4,96,17,0.503,85,79,27.1,28.0,26.4,0.00384,0.00429,.,34.2,24,0,44.7,9.87,0.00,0.00,1.8557184
hly,AgWx,beryljct,423,29JAN2019:11:00:00,38.3,14.59,35.5,34.8,36.4,33.2,321,1.1570,9.1,5.5,31,16,0.495,80,66,27.2,28.0,26.1,0.00500,0.00593,.,34.2,25,0,46.2,9.87,0.00,0.00,2.0902332
hly,AgWx,beryljct,423,29JAN2019:12:00:00,40.9,14.53,38.5,37.4,39.2,36.2,370,1.3334,13.1,7.8,38,15,0.494,68,60,26.6,27.7,25.6,0.00617,0.00768,.,34.2,25,0,48.6,9.86,0.00,0.00,2.1039518
hly,AgWx,beryljct,423,29JAN2019:13:00:00,42.9,14.12,40.8,40.0,41.1,39.2,392,1.4119,14.1,9.2,36,13,0.489,63,52,26.4,28.5,23.6,0.00695,0.00898,.,34.2,25,0,49.3,9.86,0.00,0.00,1.8918009
hly,AgWx,beryljct,423,29JAN2019:14:00:00,43.8,13.87,41.1,40.5,41.4,40.1,238,0.8580,13.2,8.2,50,10,0.481,61,53,26.1,28.1,24.6,0.00515,0.00704,.,34.2,24,0,47.9,9.85,0.00,0.00,1.4750889
hly,AgWx,beryljct,423,29JAN2019:15:00:00,44.1,14.15,41.8,41.3,41.8,40.8,260,0.9373,12.1,8.4,58,10,0.500,61,53,27.1,28.6,25.6,0.00481,0.00672,.,34.3,24,0,48.0,9.85,0.00,0.00,0.8953675
hly,AgWx,beryljct,423,29JAN2019:16:00:00,45.2,13.74,41.8,41.7,42.2,41.0,245,0.8832,13.8,8.8,51,11,0.509,61,51,27.5,29.5,24.9,0.00452,0.00648,.,34.5,24,0,46.3,9.85,0.01,0.00,0.27123793
hly,AgWx,beryljct,423,29JAN2019:17:00:00,42.7,13.16,39.8,39.7,41.0,38.2,65,0.2340,10.8,4.6,56,6.4,0.510,66,56,27.6,28.5,26.5,0.00077,0.00096,.,34.7,24,0,41.0,9.85,0.00,0.00,0.009768391
hly,AgWx,beryljct,423,29JAN2019:18:00:00,38.5,13.06,36.9,36.8,38.5,35.2,1,0.0050,8.1,3.1,37,12,0.484,69,63,26.4,27.2,25.8,0.00008,0.00013,.,34.8,24,0,36.3,9.85,0.00,0.00,1E-6
hly,AgWx,beryljct,423,29JAN2019:19:00:00,35.6,12.89,33.9,33.7,35.4,32.2,0,0.0001,12.8,8.8,59,7.6,0.465,76,68,25.5,26.1,25.1,0.00047,0.00058,.,35.0,24,0,35.3,9.85,0.00,0.00,1E-6
hly,AgWx,beryljct,423,29JAN2019:20:00:00,32.9,12.95,32.0,31.7,32.6,30.9,0,0.0001,10.8,5.0,75,9.3,0.454,77,74,24.8,25.4,24.5,0.00015,0.00021,.,35.1,24,0,35.4,9.86,0.00,0.00,1E-6
hly,AgWx,beryljct,423,29JAN2019:21:00:00,30.5,12.78,30.6,30.2,31.0,29.3,0,0.0001,7.3,2.8,68,9.9,0.444,81,76,24.3,24.6,23.9,-0.00010,-0.00012,.,35.1,24,0,35.6,9.86,0.00,0.00,1E-6
hly,AgWx,beryljct,423,29JAN2019:22:00:00,28.7,12.87,28.7,28.4,29.6,27.7,0,0.0002,5.6,3.3,68,10,0.433,84,80,23.7,24.2,23.3,-0.00007,-0.00005,.,35.1,25,0,35.5,9.86,0.00,0.00,1E-6
hly,AgWx,beryljct,423,29JAN2019:23:00:00,28.1,12.87,28.9,27.8,28.1,27.5,0,0.0000,6.7,5.0,77,4.9,0.428,84,82,23.4,23.6,23.2,0.00001,0.00001,.,35.1,25,0,35.5,9.86,0.00,0.00,2.5E-7
hly,AgWx,bigpiney,439,29JAN2019:00:00:00,1.5,12.64,-1.9,-2.2,0.4,-5.2,0,0.0001,5.6,2.5,179,31,0.099,78,71,-8.2,-5.7,-11.4,-0.00012,-0.00013,27.2,29.1,8,0,0.0,0.06,0.00,0.00,1E-6
hly,AgWx,bigpiney,439,29JAN2019:01:00:00,-0.4,12.6,-5.1,-5.7,-3.5,-7.5,0,0.0001,3.8,1.1,290,33,0.090,81,74,-11.0,-8.4,-13.2,-0.00020,-0.00026,26.9,29.0,8,0,0.0,0.06,0.00,0.00,1E-6
hly,AgWx,bigpiney,439,29JAN2019:02:00:00,-1.8,12.57,-3.6,-4.2,-2.8,-5.2,0,0.0001,5.9,2.2,256,35,0.094,78,74,-9.6,-8.3,-10.7,-0.00013,-0.00015,26.6,28.8,8,0,0.0,0.06,0.00,0.00,1E-6
hly,AgWx,bigpiney,439,29JAN2019:03:00:00,-1.1,12.53,-1.4,-2.5,-0.5,-4.6,0,0.0001,8.0,5.2,229,7.2,0.101,78,71,-8.6,-6.9,-10.1,-0.00001,0.00000,26.3,28.6,8,0,0.0,0.06,0.00,0.00,1E-6
hly,AgWx,bigpiney,439,29JAN2019:04:00:00,-0.2,12.49,-1.5,-2.2,-0.4,-3.3,0,0.0001,7.7,4.6,239,22,0.101,75,71,-8.6,-6.9,-9.7,-0.00004,-0.00004,26.0,28.4,8,0,0.0,0.06,0.00,0.00,1E-6
hly,AgWx,bigpiney,439,29JAN2019:05:00:00,-0.7,12.47,-1.7,-2.4,-0.6,-3.8,0,0.0001,6.3,3.5,221,11,0.095,75,69,-9.5,-7.7,-10.9,-0.00005,-0.00004,25.8,28.3,8,0,0.0,0.06,0.00,0.00,1E-6
hly,AgWx,bigpiney,439,29JAN2019:06:00:00,-0.3,12.44,-1.4,-1.9,0.3,-4.1,0,0.0001,6.5,2.5,125,35,0.099,75,67,-8.9,-6.9,-10.4,-0.00011,-0.00013,25.5,28.1,8,0,0.0,0.06,0.00,0.00,1E-6
hly,AgWx,bigpiney,439,29JAN2019:07:00:00,-1.1,12.43,-4.3,-5.1,-3.2,-6.5,2,0.0054,4.8,2.5,307,18,0.092,78,74,-10.8,-9.1,-12.5,-0.00010,-0.00012,25.3,27.9,7,0,0.0,0.06,0.00,0.00,0.006358088
hly,AgWx,bigpiney,439,29JAN2019:08:00:00,-0.7,14.72,1.5,-0.4,5.0,-3.6,85,0.3046,10.5,6.2,232,14,0.112,75,66,-7.2,-3.6,-10.1,0.00030,0.00054,25.2,27.8,7,0,0.0,0.06,0.00,0.00,0.22603527
hly,AgWx,bigpiney,439,29JAN2019:09:00:00,8.2,14.64,13.4,11.4,15.8,5.0,253,0.9098,9.9,6.9,238,7.5,0.162,69,55,0.9,3.6,-3.9,0.00195,0.00257,25.0,27.6,7,0,0.0,0.06,0.00,0.00,0.7965997
hly,AgWx,bigpiney,439,29JAN2019:10:00:00,17.0,14.62,12.3,12.4,18.1,9.2,397,1.4296,11.0,5.1,151,20,0.172,75,50,3.1,5.3,1.2,0.00310,0.00365,25.1,27.5,7,0,0.0,0.06,0.00,0.00,1.3236097
hly,AgWx,bigpiney,439,29JAN2019:11:00:00,22.4,14.49,18.9,17.8,21.5,12.1,495,1.7815,4.2,1.9,90,28,0.193,69,46,5.1,8.5,2.8,0.00507,0.00565,25.2,27.4,7,0,0.0,0.06,0.00,0.00,1.6915619
hly,AgWx,bigpiney,439,29JAN2019:12:00:00,29.8,14.41,24.0,22.7,24.5,20.7,537,1.9346,5.5,3.0,112,27,0.165,50,34,1.4,5.3,-1.8,0.00639,0.00739,25.5,27.4,7,0,0.0,0.06,0.00,0.00,1.871133
hly,AgWx,bigpiney,439,29JAN2019:13:00:00,32.7,14.33,25.4,24.7,25.8,23.7,522,1.8799,7.6,3.8,72,21,0.183,46,36,4.4,7.2,0.6,0.00645,0.00761,25.9,27.5,7,0,0.0,0.06,0.00,0.00,1.8274643
hly,AgWx,bigpiney,439,29JAN2019:14:00:00,33.8,14.3,27.0,26.2,27.4,24.8,452,1.6256,8.7,4.4,139,21,0.201,44,39,6.0,7.3,4.5,0.00576,0.00701,26.2,27.6,7,0,0.0,0.06,0.00,0.00,1.5767059
hly,AgWx,bigpiney,439,29JAN2019:15:00:00,34.3,14.25,27.8,27.5,28.6,26.5,330,1.1868,7.5,3.7,148,19,0.194,41,36,5.3,7.3,3.7,0.00424,0.00534,26.5,27.7,7,0,0.0,0.06,0.00,0.00,1.1439553
hly,AgWx,bigpiney,439,29JAN2019:16:00:00,34.2,14.24,25.6,26.1,28.7,23.5,179,0.6427,7.3,3.1,102,16,0.223,55,37,8.7,10.4,5.5,0.00188,0.00259,26.8,27.9,7,0,0.0,0.06,0.00,0.00,0.57602074
hly,AgWx,bigpiney,439,29JAN2019:17:00:00,28.0,12.99,20.2,20.6,23.5,18.7,38,0.1381,5.8,1.8,98,29,0.207,59,52,7.2,9.8,5.2,-0.00030,-0.00012,27.0,28.1,7,0,0.0,0.06,0.00,0.00,0.090011415
hly,AgWx,bigpiney,439,29JAN2019:18:00:00,19.4,12.88,18.6,16.6,19.1,7.6,0,0.0005,6.3,2.2,226,38,0.187,72,50,4.3,6.3,-1.3,-0.00021,-0.00024,27.1,28.2,8,0,0.0,0.06,0.00,0.00,0.000017746
hly,AgWx,bigpiney,439,29JAN2019:19:00:00,13.2,12.8,5.5,7.2,14.8,2.6,0,0.0001,8.1,4.6,222,16,0.140,77,58,-0.8,5.3,-3.4,-0.00000,0.00003,27.1,28.4,8,0,0.0,0.06,0.00,0.00,1E-6
hly,AgWx,bigpiney,439,29JAN2019:20:00:00,8.3,12.77,2.9,2.0,3.3,0.7,0,0.0001,7.1,4.7,211,10,0.123,78,71,-4.1,-2.9,-5.6,-0.00003,-0.00002,27.0,28.4,8,0,0.0,0.06,0.00,0.00,1E-6
hly,AgWx,bigpiney,439,29JAN2019:21:00:00,5.5,12.73,3.1,2.4,8.5,-0.3,0,0.0001,5.9,2.9,243,18,0.113,71,55,-6.5,-2.3,-8.9,-0.00007,-0.00007,26.9,28.4,8,0,0.0,0.06,0.00,0.00,1E-6
hly,AgWx,bigpiney,439,29JAN2019:22:00:00,3.8,12.69,0.9,2.1,6.5,-1.1,0,0.0001,6.2,2.8,191,14,0.104,70,57,-7.0,-3.3,-9.1,-0.00012,-0.00015,26.6,28.4,8,0,0.0,0.06,0.00,0.00,1E-6
hly,AgWx,bigpiney,439,29JAN2019:23:00:00,3.0,12.68,-2.0,-1.7,-1.1,-2.4,0,0.0000,6.2,4.8,230,10,0.095,71,68,-9.2,-8.4,-9.9,0.00000,0.00001,26.5,28.4,8,0,0.0,0.06,0.00,0.00,2.5E-7
hly,AgWx,blo,425,29JAN2019:00:00:00,11.7,12.92,11.3,11.5,13.5,10.2,0,0.0001,5.4,3.9,240,8.2,0.203,81,77,6.3,8.3,4.6,-0.00012,-0.00012,33.4,34.5,21,100,14.6,14.07,0.00,0.00,1E-6
hly,AgWx,blo,425,29JAN2019:01:00:00,12.4,12.89,15.0,14.3,16.3,12.1,0,0.0001,3.8,2.1,262,13,0.242,83,78,9.5,12.0,7.1,-0.00030,-0.00037,33.4,34.5,21,100,18.7,14.07,0.00,0.00,1E-6
hly,AgWx,blo,425,29JAN2019:02:00:00,14.1,12.86,14.8,15.3,16.3,13.7,0,0.0001,3.4,1.6,253,11,0.250,85,81,11.3,12.4,9.5,-0.00037,-0.00048,33.4,34.5,21,100,19.9,14.07,0.00,0.00,1E-6
hly,AgWx,blo,425,29JAN2019:03:00:00,14.5,12.84,15.7,15.1,16.5,13.6,0,0.0001,4.8,1.7,255,12,0.260,86,82,11.2,13.0,9.6,-0.00038,-0.00051,33.4,34.5,21,100,19.8,14.06,0.00,0.00,1E-6
hly,AgWx,blo,425,29JAN2019:04:00:00,14.8,12.82,14.9,15.3,16.8,14.1,0,0.0001,4.8,2.2,182,19,0.259,89,84,12.1,13.3,10.8,-0.00035,-0.00043,33.4,34.5,21,100,20.2,14.06,0.00,0.00,1E-6
hly,AgWx,blo,425,29JAN2019:05:00:00,14.8,12.8,15.4,15.4,16.6,14.0,0,0.0001,4.4,1.4,222,17,0.259,86,82,11.5,13.1,10.4,-0.00041,-0.00055,33.4,34.5,21,100,20.3,14.06,0.00,0.00,1E-6
hly,AgWx,blo,425,29JAN2019:06:00:00,14.9,12.77,15.3,15.1,16.3,14.2,0,0.0001,3.7,2.1,242,8.8,0.269,90,85,12.3,13.6,11.4,-0.00035,-0.00043,33.3,34.5,21,100,20.0,14.06,0.00,0.00,1E-6
hly,AgWx,blo,425,29JAN2019:07:00:00,14.8,12.74,16.0,15.7,17.1,14.5,1,0.0023,3.3,1.5,288,25,0.278,90,88,13.0,14.6,12.1,-0.00042,-0.00055,33.4,34.5,21,100,20.3,14.06,0.00,0.00,0.00442147
hly,AgWx,blo,425,29JAN2019:08:00:00,15.5,12.76,16.0,15.9,16.6,15.4,41,0.1491,4.6,2.5,263,11,0.278,91,87,13.5,14.3,12.9,-0.00015,-0.00008,33.3,34.5,21,100,22.8,14.06,0.00,0.00,0.20006055
hly,AgWx,blo,425,29JAN2019:09:00:00,17.6,13.4,17.7,17.6,18.6,16.2,136,0.4907,4.7,2.4,139,37,0.295,89,84,14.4,15.9,12.5,0.00112,0.00128,33.3,34.5,21,100,30.4,14.06,0.00,0.00,0.761829
hly,AgWx,blo,425,29JAN2019:10:00:00,22.5,14.88,18.6,18.8,19.7,18.1,323,1.1645,5.6,3.0,77,24,0.313,90,87,16.0,16.9,15.1,0.00290,0.00318,33.3,34.5,21,100,40.1,14.05,0.00,0.00,1.2978535
hly,AgWx,blo,425,29JAN2019:11:00:00,27.7,14.6,19.8,19.8,21.4,18.5,473,1.7016,6.6,3.1,84,21,0.327,90,85,16.7,18.1,16.0,0.00457,0.00497,33.3,34.5,21,100,44.7,14.05,0.00,0.00,1.6818031
hly,AgWx,blo,425,29JAN2019:12:00:00,30.2,14.37,20.0,20.4,20.9,19.7,542,1.9510,4.8,2.8,60,14,0.324,88,85,17.0,17.4,16.5,0.00552,0.00598,33.3,34.5,21,100,46.1,14.05,0.00,0.00,1.8721071
hly,AgWx,blo,425,29JAN2019:13:00:00,31.4,14.36,21.6,21.4,22.5,20.3,525,1.8899,4.3,1.6,64,21,0.332,85,81,17.1,18.0,16.5,0.00576,0.00622,33.3,34.5,21,99,48.2,14.04,0.00,0.00,1.8502611
hly,AgWx,blo,425,29JAN2019:14:00:00,33.3,14.28,21.8,22.3,23.0,21.7,461,1.6602,5.6,2.6,78,14,0.324,82,77,17.0,17.9,16.3,0.00492,0.00541,33.3,34.5,21,100,44.1,14.05,0.00,0.00,1.6188077
hly,AgWx,blo,425,29JAN2019:15:00:00,33.1,14.26,22.7,22.7,24.4,21.7,344,1.2378,4.5,0.9,97,16,0.338,83,79,17.6,19.4,17.0,0.00357,0.00387,33.3,34.5,21,100,46.0,14.05,0.00,0.00,1.1979604
hly,AgWx,blo,425,29JAN2019:16:00:00,33.3,13.79,22.5,22.3,24.4,21.4,183,0.6591,3.1,1.3,82,41,0.326,81,76,17.0,18.6,15.9,0.00141,0.00161,33.3,34.5,21,100,36.6,14.05,0.00,0.00,0.6407436
hly,AgWx,blo,425,29JAN2019:17:00:00,25.3,13.24,19.5,20.1,21.4,17.7,14,0.0502,3.6,1.3,262,26,0.297,82,80,15.2,16.6,12.8,-0.00012,-0.00009,33.3,34.5,21,100,22.3,14.06,0.01,0.00,0.123021764
hly,AgWx,blo,425,29JAN2019:18:00:00,17.7,13.12,18.2,18.6,20.6,15.2,0,0.0010,3.5,1.7,256,18,0.263,81,72,12.6,15.4,10.0,-0.00039,-0.00050,33.3,34.5,21,100,18.8,14.06,0.00,0.00,0.0006413701
hly,AgWx,blo,425,29JAN2019:19:00:00,14.8,13.05,16.6,16.5,18.3,14.8,0,0.0001,5.2,2.9,236,4.6,0.229,76,71,9.2,11.8,7.8,-0.00018,-0.00019,33.3,34.5,21,100,17.9,14.06,0.00,0.00,1E-6
hly,AgWx,blo,425,29JAN2019:20:00:00,13.7,13.01,18.2,18.3,20.5,15.7,0,0.0001,3.0,1.7,283,39,0.237,73,65,9.5,11.5,6.6,-0.00033,-0.00040,33.3,34.5,21,100,18.2,14.06,0.00,0.00,1E-6
hly,AgWx,blo,425,29JAN2019:21:00:00,13.4,12.98,18.1,18.5,20.1,16.0,0,0.0001,3.9,1.8,308,20,0.256,80,71,11.7,13.2,9.4,-0.00035,-0.00044,33.3,34.5,21,100,18.3,14.06,0.00,0.00,1E-6
hly,AgWx,blo,425,29JAN2019:22:00:00,12.4,12.93,13.6,13.2,17.6,11.7,0,0.0001,5.6,3.6,242,9.8,0.214,83,72,7.7,10.9,5.6,-0.00014,-0.00014,33.3,34.5,21,100,15.3,14.06,0.00,0.00,1E-6
hly,AgWx,blo,425,29JAN2019:23:00:00,11.2,12.93,14.1,13.6,14.4,12.9,0,0.0000,3.9,2.5,233,9.1,0.224,77,71,6.6,8.4,5.3,-0.00005,-0.00005,33.3,34.5,21,100,15.1,14.06,0.00,0.00,2.5E-7
hly,AgWx,bloomfield,441,29JAN2019:00:00:00,28.4,12.62,24.7,25.9,29.4,23.3,5,0.0197,3.7,1.3,136,20,0.289,68,51,14.3,14.8,13.3,-0.00046,-0.00064,32.7,33.6,19,0,0.0,0.33,0.00,0.00,1E-6
hly,AgWx,bloomfield,441,29JAN2019:01:00:00,26.7,12.59,23.7,23.2,24.9,22.3,5,0.0193,4.8,3.2,115,12,0.299,73,64,14.9,15.5,14.2,-0.00011,-0.00010,32.7,33.7,19,0,0.0,0.33,0.00,0.00,1E-6
hly,AgWx,bloomfield,441,29JAN2019:02:00:00,25.6,12.57,24.2,23.8,25.0,22.6,5,0.0188,4.1,2.6,114,11,0.298,72,65,14.9,15.3,14.3,-0.00018,-0.00019,32.7,33.6,19,0,0.0,0.33,0.00,0.00,1E-6
hly,AgWx,bloomfield,441,29JAN2019:03:00:00,25.1,12.51,23.5,22.9,24.5,21.0,5,0.0187,5.0,2.1,119,18,0.302,76,66,15.1,15.5,14.2,-0.00028,-0.00033,32.7,33.5,19,0,0.0,0.33,0.00,0.00,1E-6
hly,AgWx,bloomfield,441,29JAN2019:04:00:00,24.0,12.5,23.1,22.8,23.9,22.1,5,0.0184,6.0,3.7,145,8.6,0.293,73,69,14.8,15.4,13.9,-0.00008,-0.00006,32.6,33.6,19,0,0.0,0.33,0.00,0.00,1E-6
hly,AgWx,bloomfield,441,29JAN2019:05:00:00,23.8,12.45,23.1,22.6,22.9,22.0,5,0.0187,7.8,5.7,120,8.0,0.283,70,67,13.8,14.1,13.5,0.00011,0.00017,32.6,33.5,19,0,0.0,0.33,0.00,0.00,1E-6
hly,AgWx,bloomfield,441,29JAN2019:06:00:00,24.3,12.42,23.1,22.3,22.9,21.8,5,0.0187,7.6,4.9,109,9.3,0.282,72,66,13.8,14.1,13.1,0.00005,0.00010,32.6,33.5,19,0,0.0,0.33,0.00,0.00,1E-6
hly,AgWx,bloomfield,441,29JAN2019:07:00:00,24.6,12.43,24.0,23.4,24.0,22.7,10,0.0377,9.0,5.3,80,12,0.260,66,56,12.0,13.2,10.3,0.00033,0.00078,32.5,33.5,19,0,0.0,0.33,0.00,0.00,0.0408534809
hly,AgWx,bloomfield,441,29JAN2019:08:00:00,25.7,12.6,25.0,24.4,24.9,23.8,60,0.2171,9.5,5.4,96,11,0.255,61,54,11.5,13.4,10.0,0.00136,0.00218,32.5,33.4,19,0,0.0,0.33,0.00,0.00,0.48012355
hly,AgWx,bloomfield,441,29JAN2019:09:00:00,27.6,13.05,27.2,26.3,28.4,24.9,180,0.6472,9.8,5.8,93,13,0.282,60,56,13.5,15.8,12.0,0.00278,0.00375,32.4,33.4,19,0,0.0,0.33,0.00,0.00,1.1432776
hly,AgWx,bloomfield,441,29JAN2019:10:00:00,30.9,14.75,30.4,29.2,30.7,28.1,250,0.9000,9.4,5.2,92,16,0.307,58,55,15.5,16.6,14.3,0.00397,0.00504,32.4,33.4,19,0,0.0,0.33,0.00,0.00,1.6967342
hly,AgWx,bloomfield,441,29JAN2019:11:00:00,34.9,14.27,33.6,32.2,34.7,30.2,381,1.3722,6.3,2.5,117,50,0.302,55,44,15.4,16.9,14.1,0.00590,0.00682,32.4,33.4,19,0,0.0,0.33,0.00,0.00,2.0700776
hly,AgWx,bloomfield,441,29JAN2019:12:00:00,39.5,14.2,36.3,35.3,37.4,33.4,431,1.5518,7.9,2.5,266,35,0.297,46,39,14.9,16.1,14.0,0.00716,0.00830,32.4,33.4,19,0,0.0,0.33,0.00,0.00,2.2259404
hly,AgWx,bloomfield,441,29JAN2019:13:00:00,43.4,14.13,39.5,38.4,39.6,36.6,456,1.6433,8.9,4.1,289,33,0.239,39,26,10.9,15.7,6.2,0.00830,0.01019,32.4,33.3,19,0,0.0,0.33,0.00,0.00,2.1571258
hly,AgWx,bloomfield,441,29JAN2019:14:00:00,44.7,14.11,40.6,39.7,40.7,38.6,342,1.2302,9.4,4.9,276,20,0.226,29,26,8.5,9.9,7.6,0.00717,0.00934,32.4,33.3,19,0,0.0,0.33,0.00,0.00,1.8573549
hly,AgWx,bloomfield,441,29JAN2019:15:00:00,44.6,14.1,40.9,40.5,41.8,39.9,267,0.9601,11.0,5.1,296,19,0.233,28,26,9.3,10.3,8.6,0.00587,0.00805,32.4,33.3,19,0,0.0,0.33,0.00,0.00,1.3519471
hly,AgWx,bloomfield,441,29JAN2019:16:00:00,45.4,14.08,42.3,41.5,42.7,40.6,258,0.9301,10.4,5.4,291,15,0.255,30,27,10.9,12.1,9.6,0.00514,0.00739,32.5,33.4,19,0,0.0,0.33,0.00,0.00,0.7052251
hly,AgWx,bloomfield,441,29JAN2019:17:00:00,43.8,12.84,39.6,39.5,41.5,37.3,48,0.1744,7.9,5.1,255,12,0.270,36,29,12.6,13.1,11.8,0.00141,0.00282,32.8,33.5,19,0,0.0,0.33,0.00,0.00,0.125909704
hly,AgWx,bloomfield,441,29JAN2019:18:00:00,38.7,12.75,36.0,36.0,37.9,34.3,5,0.0194,7.6,4.9,206,10,0.280,42,35,13.3,13.8,12.6,0.00087,0.00116,32.9,33.6,19,0,0.0,0.33,0.00,0.00,0.0003822537
hly,AgWx,bloomfield,441,29JAN2019:19:00:00,34.5,12.72,31.4,31.3,34.9,28.6,5,0.0197,6.6,2.3,215,38,0.282,53,41,13.7,14.3,12.7,0.00015,0.00024,32.9,33.6,19,0,0.0,0.33,0.00,0.00,1E-6
hly,AgWx,bloomfield,441,29JAN2019:20:00:00,30.8,12.69,29.6,29.7,33.2,24.4,5,0.0189,2.7,0.9,165,25,0.282,61,44,13.5,14.1,11.7,-0.00022,-0.00028,32.8,33.7,19,0,0.0,0.33,0.00,0.00,1E-6
hly,AgWx,bloomfield,441,29JAN2019:21:00:00,27.3,12.66,25.1,25.0,26.7,22.9,5,0.0188,4.3,1.0,116,27,0.283,67,57,13.6,14.3,11.6,-0.00024,-0.00033,32.8,33.7,19,0,0.0,0.33,0.00,0.00,1E-6
hly,AgWx,bloomfield,441,29JAN2019:22:00:00,25.4,12.62,25.6,24.7,26.3,23.0,5,0.0187,6.6,4.3,134,5.9,0.291,67,60,14.3,14.9,13.7,0.00023,0.00032,32.8,33.6,19,0,0.0,0.33,0.00,0.00,1E-6
hly,AgWx,bloomfield,441,29JAN2019:23:00:00,25.3,12.62,25.0,24.8,25.8,23.9,5,0.0046,3.9,1.7,155,21,0.286,65,62,14.1,14.7,13.2,-0.00002,-0.00001,32.7,33.7,19,0,0.0,0.33,0.00,0.00,2.5E-7
hly,AgWx,bluebell,436,29JAN2019:00:00:00,7.5,12.68,6.0,5.6,6.1,4.6,0,0.0001,5.1,2.1,343,24,0.168,87,84,2.0,2.7,0.7,-0.00023,-0.00027,33.0,33.6,15,100,9.8,13.23,0.00,0.00,1E-6
hly,AgWx,bluebell,436,29JAN2019:01:00:00,7.1,12.67,6.7,5.9,6.8,5.0,0,0.0001,7.0,3.0,336,18,0.170,86,84,2.2,3.1,1.3,-0.00017,-0.00020,32.9,33.6,15,100,10.2,13.23,0.00,0.00,1E-6
hly,AgWx,bluebell,436,29JAN2019:02:00:00,8.1,12.63,8.9,8.5,10.4,6.9,0,0.0001,8.8,4.7,324,24,0.186,84,81,4.2,6.1,3.0,-0.00013,-0.00014,32.9,33.6,15,100,13.2,13.23,0.00,0.00,1E-6
hly,AgWx,bluebell,436,29JAN2019:03:00:00,9.6,12.62,10.1,10.0,11.2,8.9,0,0.0001,4.0,1.1,255,24,0.195,84,80,5.7,7.0,4.4,-0.00036,-0.00049,32.9,33.6,15,100,15.5,13.23,0.00,0.00,1E-6
hly,AgWx,bluebell,436,29JAN2019:04:00:00,10.3,12.58,10.8,10.5,12.2,9.3,0,0.0001,4.4,1.3,250,10,0.203,84,79,6.3,8.1,4.6,-0.00038,-0.00054,32.8,33.6,15,100,16.2,13.23,0.00,0.00,1E-6
hly,AgWx,bluebell,436,29JAN2019:05:00:00,11.0,12.55,11.2,11.2,12.3,10.3,0,0.0001,4.0,1.5,245,11,0.208,84,81,6.9,8.2,6.3,-0.00034,-0.00044,32.8,33.6,15,100,16.9,13.23,0.00,0.00,1E-6
hly,AgWx,bluebell,436,29JAN2019:06:00:00,11.4,12.53,10.8,10.8,11.6,10.1,0,0.0001,3.6,1.3,337,8.7,0.207,86,83,6.9,7.8,6.2,-0.00037,-0.00049,32.8,33.5,15,100,16.7,13.23,0.00,0.00,1E-6
hly,AgWx,bluebell,436,29JAN2019:07:00:00,11.3,12.52,11.4,10.7,11.5,9.9,1,0.0050,4.2,1.9,334,17,0.212,86,83,6.9,7.8,6.1,-0.00029,-0.00036,32.7,33.5,15,100,16.5,13.23,0.00,0.00,0.010842396
hly,AgWx,bluebell,436,29JAN2019:08:00:00,12.0,12.54,12.6,12.2,13.6,11.4,53,0.1917,6.4,2.8,307,24,0.218,84,80,7.9,8.9,7.2,0.00017,0.00030,32.7,33.5,15,100,19.8,13.23,0.00,0.00,0.27835194
hly,AgWx,bluebell,436,29JAN2019:09:00:00,14.6,13.17,14.6,13.9,16.1,12.1,152,0.5484,2.5,0.4,175,3.0,0.232,84,77,9.0,10.6,7.8,0.00125,0.00136,32.7,33.5,15,100,30.4,13.23,0.00,0.00,0.8851962
hly,AgWx,bluebell,436,29JAN2019:10:00:00,19.3,14.78,18.0,17.3,20.4,15.5,259,0.9316,2.7,0.5,178,13,0.251,79,70,11.0,13.1,9.6,0.00266,0.00288,32.7,33.5,15,100,42.1,13.23,0.00,0.00,1.4295972
hly,AgWx,bluebell,436,29JAN2019:11:00:00,25.5,14.7,20.0,19.3,22.5,16.7,404,1.4560,3.9,1.7,172,18,0.264,77,66,12.2,13.5,10.0,0.00432,0.00474,32.6,33.5,15,49,45.7,13.24,0.00,0.00,1.8103053
hly,AgWx,bluebell,436,29JAN2019:12:00:00,29.8,14.26,23.1,23.5,25.0,21.9,497,1.7909,7.1,2.8,94,23,0.276,69,61,13.1,14.4,11.8,0.00584,0.00655,32.6,33.5,15,46,44.2,13.23,0.00,0.00,1.9878283
hly,AgWx,bluebell,436,29JAN2019:13:00:00,32.5,14.16,25.3,25.2,26.4,24.2,573,2.0628,5.5,2.7,114,22,0.295,67,59,14.5,16.2,12.7,0.00690,0.00769,32.6,33.5,15,51,46.0,13.23,0.00,0.00,1.9448993
hly,AgWx,bluebell,436,29JAN2019:14:00:00,33.5,14.17,22.6,23.2,26.1,21.8,498,1.7923,8.1,4.7,170,14,0.311,77,59,15.5,16.6,13.1,0.00526,0.00598,32.7,33.4,15,90,39.9,13.22,0.00,0.00,1.6875292
hly,AgWx,bluebell,436,29JAN2019:15:00:00,31.6,14.18,19.5,19.9,21.9,19.0,373,1.3421,7.1,3.8,197,5.8,0.286,80,73,14.3,16.0,13.2,0.00339,0.00383,32.7,33.5,15,100,34.4,13.22,0.00,0.00,1.2429278
hly,AgWx,bluebell,436,29JAN2019:16:00:00,31.4,14.19,18.9,20.1,21.2,17.6,215,0.7723,3.1,1.7,244,16,0.271,77,72,13.4,14.3,10.5,0.00166,0.00191,32.7,33.5,15,100,34.2,13.22,0.00,0.00,0.6579322
hly,AgWx,bluebell,436,29JAN2019:17:00:00,27.0,13.27,12.7,13.7,17.9,9.1,54,0.1958,5.3,2.8,310,12,0.226,85,73,8.8,12.6,5.2,-0.00006,0.00005,32.8,33.5,15,100,21.0,13.22,0.00,0.00,0.122066958
hly,AgWx,bluebell,436,29JAN2019:18:00:00,16.8,12.93,8.1,8.4,11.1,6.9,0,0.0009,6.4,3.4,330,20,0.189,90,83,5.0,8.7,3.5,-0.00017,-0.00019,32.8,33.5,15,100,11.8,13.22,0.00,0.00,0.0004915393
hly,AgWx,bluebell,436,29JAN2019:19:00:00,11.4,12.85,6.4,6.0,8.8,3.4,0,0.0001,6.3,2.6,331,32,0.174,88,84,2.8,5.6,-0.2,-0.00021,-0.00025,32.8,33.5,15,100,9.7,13.22,0.00,0.00,1E-6
hly,AgWx,bluebell,436,29JAN2019:20:00:00,8.6,12.81,4.9,4.5,6.2,2.6,0,0.0001,7.3,3.4,331,23,0.163,88,84,1.2,3.4,-0.7,-0.00016,-0.00018,32.8,33.5,15,100,8.2,13.22,0.00,0.00,1E-6
hly,AgWx,bluebell,436,29JAN2019:21:00:00,7.1,12.77,5.4,4.9,8.0,1.1,0,0.0001,7.1,2.8,251,37,0.168,89,82,1.6,5.1,-3.2,-0.00019,-0.00023,32.8,33.5,15,100,8.7,13.23,0.00,0.00,1E-6
hly,AgWx,bluebell,436,29JAN2019:22:00:00,5.8,12.72,2.8,2.7,5.4,0.5,0,0.0001,4.9,1.4,270,29,0.149,88,83,-0.5,2.5,-3.4,-0.00027,-0.00035,32.8,33.5,15,100,6.7,13.23,0.00,0.00,1E-6
hly,AgWx,bluebell,436,29JAN2019:23:00:00,4.4,12.73,3.8,1.8,2.9,0.7,0,0.0000,3.9,2.2,347,20,0.150,87,86,-1.4,-0.2,-2.6,-0.00005,-0.00006,32.8,33.5,15,100,5.8,13.22,0.00,0.00,2.5E-7
hly,AgWx,bluecreek,403,29JAN2019:00:00:00,19.1,12.92,20.7,20.7,21.8,19.6,0,0.0000,7.1,5.2,354,9.1,0.235,63,58,9.2,10.1,8.3,0.00026,0.00035,32.0,32.6,27,.,.,13.33,0.01,0.00,1E-6
hly,AgWx,bluecreek,403,29JAN2019:01:00:00,19.5,12.89,19.2,19.2,21.7,16.2,0,0.0000,8.9,5.0,257,8.5,0.238,73,59,9.6,12.0,7.8,0.00016,0.00022,32.0,32.6,26,.,.,13.33,0.00,0.00,1E-6
hly,AgWx,bluecreek,403,29JAN2019:02:00:00,19.6,12.87,19.6,19.5,21.4,18.1,0,0.0000,7.5,5.4,351,7.5,0.244,71,63,10.2,11.8,9.1,0.00019,0.00026,32.0,32.8,27,.,.,13.33,0.00,0.00,1E-6
hly,AgWx,bluecreek,403,29JAN2019:03:00:00,19.5,12.84,18.5,18.7,20.3,17.5,0,0.0000,9.5,6.8,337,8.6,0.240,71,66,10.2,11.6,9.1,0.00022,0.00029,32.0,32.7,27,.,.,13.33,0.00,0.00,1E-6
hly,AgWx,bluecreek,403,29JAN2019:04:00:00,19.2,12.81,19.2,18.2,19.9,16.7,0,0.0000,9.5,7.5,254,8.2,0.253,75,68,10.5,11.8,9.3,0.00021,0.00026,32.0,32.5,27,.,.,13.33,0.00,0.00,1E-6
hly,AgWx,bluecreek,403,29JAN2019:05:00:00,18.8,12.79,17.9,17.5,19.8,15.8,0,0.0000,11.7,8.6,249,9.4,0.247,76,69,10.4,12.2,8.6,0.00021,0.00026,32.0,32.7,27,.,.,13.33,0.00,0.00,1E-6
hly,AgWx,bluecreek,403,29JAN2019:06:00:00,19.0,12.76,18.8,19.2,21.3,16.8,0,0.0000,9.2,6.9,343,7.4,0.246,73,65,10.7,12.5,9.1,0.00022,0.00029,32.0,32.6,27,.,.,13.33,0.00,0.00,1E-6
hly,AgWx,bluecreek,403,29JAN2019:07:00:00,19.0,12.74,20.8,20.3,22.5,17.2,1,0.0018,9.3,5.8,350,13,0.247,73,60,10.5,11.9,9.6,0.00024,0.00031,32.0,32.7,27,.,.,13.33,0.00,0.00,0.0025428105
hly,AgWx,bluecreek,403,29JAN2019:08:00:00,19.8,12.77,20.1,20.0,22.1,18.6,35,0.1257,8.7,5.9,92,8.2,0.247,69,62,10.8,11.8,10.0,0.00050,0.00106,32.0,32.5,27,.,.,13.33,0.00,0.00,0.167654842